Regional Weather Roundup
Issued by NWS

Home | Current Version | Previous Version | Graphics & Text | Print | Product List | Glossary Off
Versions: 1 2 3 4 5 6 7 8 9 10 11 12 13 14 15 16 17 18 19 20 21 22 23 24 25 26 27 28 29 30 31 32 33 34 35 36 37 38 39 40 41 42 43 44 45 46 47 48 49 50

000
ASUS43 KMKX 191400
RWRWI

WISCONSIN REGIONAL WEATHER ROUNDUP
NATIONAL WEATHER SERVICE MILWAUKEE/SULLIVAN WI
800 AM CST SUN NOV 19 2017

NOTE: "FAIR" INDICATES FEW OR NO CLOUDS BELOW 12,000 FEET WITH NO
SIGNIFICANT WEATHER AND/OR OBSTRUCTIONS TO VISIBILITY.

WIZ001-002-006>008-014>016-023>028-191500-
NORTHWEST WISCONSIN

CITY           SKY/WX    TMP DP  RH WIND       PRES   REMARKS
SUPERIOR ARPT  PTCLDY    13   9  82 SW6       30.01F WCI   4
ASHLAND        PTCLDY    14   8  77 SW12      29.99R WCI   0
HAYWARD        CLEAR     13   8  81 VRB3      29.99R
SIREN          CLEAR     14  10  84 W6        30.03S WCI   5
CUMBERLAND     CLEAR     14  10  85 W7        30.01S WCI   4
RICE LAKE      CLEAR     16  12  85 W6        30.03S WCI   7
CHETEK         CLEAR     15  10  83 CALM      30.02S
LADYSMITH      CLEAR     16  11  81 W8        30.00S WCI   5
EAU CLAIRE     NOT AVBL
MENOMONIE      CLEAR     19  12  76 W12       30.05S WCI   6
NEW RICHMOND   PTCLDY    15  10  79 W7        30.06R WCI   5
OSCEOLA        PTCLDY    17  11  78 W6        30.09R WCI   8
$$

WIZ003>005-009-010-017-018-191500-
NORTH CENTRAL WISCONSIN

CITY           SKY/WX    TMP DP  RH WIND       PRES   REMARKS
MANITOWISH WTR LGT SNOW  14  11  90 W7        29.90R WCI   3
ARBOR VITAE    FLURRIES  17  11  79 NW8G16    29.89S WCI   6
WOODRUFF       FLURRIES  17  11  79 NW8G16    29.89S WCI   6
RHINELANDER    CLOUDY   N/A N/A N/A VRB7      29.90S
EAGLE RIVER    FLURRIES  16  10  78 W12       29.88R WCI   3
LAND O LAKES   FLURRIES  17  13  84 W7        29.88S WCI   7
PHILLIPS       CLOUDY    13   8  83 W9        29.94R WCI   0
TOMAHAWK       PTCLDY    14   8  79 NW7       29.93R WCI   4
MEDFORD        PTCLDY    14   9  79 W6        29.95R WCI   5
MERRILL        MOCLDY    17  10  74 W8        29.95R WCI   7
$$

WIZ029-030-035-036-043>047-191500-
CENTRAL WISCONSIN

CITY           SKY/WX    TMP DP  RH WIND       PRES   REMARKS
WAUSAU         PTCLDY    18  10  71 NW13      29.95R WCI   5
MOSINEE        MOCLDY    18  12  79 W16       29.96R WCI   3
MARSHFIELD     CLEAR     17   9  70 W13       29.97R WCI   4
STEVENS POINT  PTCLDY    18   9  70 W7        29.97R WCI   8
WAUPACA        CLOUDY    24  13  62 W12G17    29.96S WCI  13
WAUTOMA        MOCLDY    22  13  68 NW12      30.00R WCI  10
WISC RAPIDS    PTCLDY    19  10  68 NW9       30.00R WCI   8
CAMP DOUGLAS   NOT AVBL
$$

WIZ011>013-019>022-031-037>040-048>050-191500-
NORTHEAST WISCONSIN

CITY           SKY/WX    TMP DP  RH WIND       PRES   REMARKS
ANTIGO         CLOUDY    17  10  73 NW10G16   29.90S WCI   4
SHAWANO        CLOUDY    25  13  61 NW9       29.94R WCI  15
OCONTO         CLOUDY    25  12  58 NW9       29.93R WCI  15
STURGEON BAY   PTCLDY    25  13  60 NW17G24   29.92R WCI  12
GREEN BAY      CLOUDY    26  17  68 W16       29.94R WCI  14
MANITOWOC      CLOUDY    27  16  63 NW16G22   29.94R WCI  15
APPLETON       MOCLDY    21  10  63 W15       29.93R WCI   8
CLINTONVILLE   CLOUDY    21  10  63 NW15      29.95R WCI   8
OSHKOSH        CLOUDY    24  14  65 W16       29.95R WCI  11
$$

WIZ032>034-041-042-053>061-191500-
SOUTHWEST WISCONSIN

CITY           SKY/WX    TMP DP  RH WIND       PRES   REMARKS
LA CROSSE      PTCLDY    22  12  65 W10       30.08R WCI  11
SPARTA         CLEAR     18  12  79 W3        30.05S
VIROQUA        PTCLDY    19  15  83 NW7       30.02R WCI  10
BOSCOBEL       CLEAR     23  12  62 W6        30.09R WCI  16
PRAIRIE DU CHI CLEAR     21  13  70 W13       30.10R WCI   9
PLATTEVILLE    CLEAR     21  17  83 W9        30.05R WCI  11
$$

WIZ056-057-062-063-064-067-068-191500-
SOUTH CENTRAL WISCONSIN

CITY           SKY/WX    TMP DP  RH WIND       PRES   REMARKS
REEDSBURG      PTCLDY    19  11  72 W12G17    30.02R WCI   7
BARABOO/DELLS  PTCLDY    19  13  76 NW6       30.01R WCI  11
LONE ROCK      NOT AVBL
MINERAL POINT  PTCLDY    23  18  80 W8        30.02R WCI  14
MADISON        PTCLDY    22  14  71 NW12G21   30.01R WCI  10
MIDDLETON      MOCLDY    24  17  75 W10G17    30.01R WCI  13
WATERTOWN      PTCLDY    23  16  75 NW9       29.98R WCI  13
MONROE         PTCLDY    23  16  74 W14       30.00R WCI  11
JANESVILLE     MOCLDY    27  19  74 NW13      30.00R WCI  16
$$

WIZ051-052-058>065-066-070>072-191500-
SOUTHEAST WISCONSIN

CITY           SKY/WX    TMP DP  RH WIND       PRES   REMARKS
MILWAUKEE      PTSUNNY   29  16  58 W13       29.97R WCI  19
WAUKESHA       CLEAR     23  14  68 W17G23    29.98R WCI   9
MILWAUKEE/TIMM MOCLDY    27  12  54 W12       29.97R WCI  16
RACINE         SUNNY     28  16  60 W14G28    29.99R WCI  17
BURLINGTON     CLEAR     28  21  76 NW13      29.99R WCI  17
KENOSHA        SUNNY     28  17  63 NW9G21    29.98R WCI  19
FOND DU LAC    CLOUDY    24  13  62 W10       29.97R WCI  14
SHEBOYGAN      CLOUDY    27  18  69 NW17      29.94R WCI  14
WEST BEND      CLOUDY    27  16  63 NW14G25   29.95R WCI  15
JUNEAU         CLEAR     22  14  73 NW7       29.98R WCI  13
$$

LSZ147-162-191500-
LAKE SUPERIOR

STATION/POSITION TIME  TEMP    WIND        PRES    WAVE
                       AIR SEA DIR/SP/G            HT/PER
                 (UTC) (F)     (DEG/KT/KT) (MB)    (FT/S)
DEVILS ISLAND    1300   19     270/ 17/ 21 1015.3F
SAXON HARBOR     1330   18     210/  8/ 11 1014.9R
$$

LMZ867-665-643>646-191500-
LAKE MICHIGAN

STATION/POSITION TIME  TEMP    WIND        PRES    WAVE
                       AIR SEA DIR/SP/G            HT/PER
                 (UTC) (F)     (DEG/KT/KT) (MB)    (FT/S)
N MID LAKE BUOY  1250   31 48  300/ 21/ 27 1011.2R   5/ 5
NORTHPORT PIER   1335   28     310/ 13/ 25 1011.9R
SHEBOYGAN LAKESH 1300   28     320/ 15/ 17 1014.0R
PORT WASHINGTON  1340   27     310/  6/ 12 1015.6R
MILWAUKEE LAKESH 1330   28     290/ 14/ 17   N/A
S MID LAKE BUOY  1250   33 49  330/ 21/ 25 1013.6R   6/ 7
KENOSHA   LAKESH 1300   29     290/ 12/ 20 1014.6
$$

TC  - TEMPERATURE IN CELSIUS
VSB - VISIBILITY IN STATUTE MILES
WCI - WIND CHILL INDEX
HX  - HEAT INDEX




USA.gov is the U.S. government's official web portal to all federal, state and local government web resources and services.